Greensboro, NC

12:25 AM EDT on August 26, 2016 (GMT -0400)
Piedmont Triad International

Weather History for KGSO - July, 2013

Change the Weather History Date:

Thursday, July 18, 2013

  Actual Average Record
Temperature  
Mean Temperature 83 °F 79 °F  
Max Temperature 92 °F 88 °F 97 °F (1986)
Min Temperature 73 °F 69 °F 55 °F (1946)
Degree Days  
Heating Degree Days 0 0  
Month to date heating degree days 0 0  
Since 1 June heating degree days 0 6  
Since 1 July heating degree days 0 0  
Cooling Degree Days 18 14  
Month to date cooling degree days 242 246  
Year to date cooling degree days 691 712  
Since 1 June cooling degree days 541 553  
Growing Degree Days 32 (Base 50)    
Moisture  
Dew Point 72 °F    
Average Humidity 73    
Maximum Humidity 93    
Minimum Humidity 52    
Precipitation  
Precipitation T in 0.15 in 1.50 in (1984)
Month to date precipitation 4.24 2.52  
Year to date precipitation 30.96 22.95  
Sea Level Pressure  
Sea Level Pressure 30.11 in    
Wind  
Wind Speed 4 mph (SW)    
Max Wind Speed 15 mph    
Max Gust Speed 17 mph    
Visibility 9 miles    
Events Rain , Thunderstorm    
T = Trace of Precipitation, MM = Missing Value Source: NWS Daily Summary

Daily Weather History Graph

Daily Weather History Graph

Search for Another Location

Airport or City:

Trip Planner

Search our weather history database for the weather conditions in past years. The results will help you decide how hot, cold, wet, or windy it might be!

Date:

Astronomy

Jul. 18, 2013 Rise Set
Actual Time 6:16 AM EDT 8:35 PM EDT
Civil Twilight 5:47 AM EDT 9:04 PM EDT
Nautical Twilight 5:11 AM EDT 9:40 PM EDT
Astronomical Twilight 4:31 AM EDT 10:19 PM EDT
Moon 4:31 PM EDT (7/18) 2:03 AM EDT (7/18)
Length of Visible Light 15h 17m
Length of Day
14h 18m
Waxing Gibbous, 77% of the Moon is Illuminated
Jul 18
Waxing Gibbous
Jul 22
Full
Jul 29
Last Quarter
Aug 6
New
Aug 14
First Quarter

Hourly Weather History & Observations

Time (EDT) Temp. Heat Index Dew Point Humidity Pressure Visibility Wind Dir Wind Speed Gust Speed Precip Events Conditions
12:54 AM 77.0 °F - 73.9 °F 90% 30.14 in 9.0 mi Calm Calm - N/A   Scattered Clouds
1:54 AM 77.0 °F - 72.0 °F 84% 30.15 in 10.0 mi Calm Calm - N/A   Scattered Clouds
2:54 AM 75.0 °F - 72.0 °F 90% 30.14 in 8.0 mi Calm Calm - N/A   Overcast
3:54 AM 75.9 °F - 72.0 °F 87% 30.12 in 9.0 mi Calm Calm - N/A   Scattered Clouds
4:54 AM 73.9 °F - 71.1 °F 91% 30.12 in 8.0 mi Calm Calm - N/A   Partly Cloudy
5:54 AM 73.9 °F - 71.1 °F 91% 30.12 in 8.0 mi Calm Calm - N/A   Partly Cloudy
6:54 AM 75.0 °F - 71.1 °F 87% 30.12 in 6.0 mi Calm Calm - N/A   Scattered Clouds
7:54 AM 77.0 °F - 71.1 °F 82% 30.14 in 9.0 mi Calm Calm - N/A   Scattered Clouds
8:54 AM 80.1 °F 83.8 °F 72.0 °F 76% 30.15 in 9.0 mi NNE 4.6 mph - N/A   Partly Cloudy
9:54 AM 84.0 °F 90.2 °F 73.0 °F 69% 30.14 in 10.0 mi Calm Calm - N/A   Mostly Cloudy
10:54 AM 86.0 °F 93.0 °F 73.0 °F 65% 30.14 in 10.0 mi Calm Calm - N/A   Mostly Cloudy
11:54 AM 87.1 °F 93.6 °F 72.0 °F 61% 30.14 in 10.0 mi West 4.6 mph - N/A   Mostly Cloudy
12:54 PM 89.1 °F 95.0 °F 71.1 °F 55% 30.13 in 10.0 mi NE 3.5 mph - N/A   Mostly Cloudy
1:54 PM 90.0 °F 96.4 °F 71.1 °F 54% 30.11 in 10.0 mi Calm Calm - N/A   Mostly Cloudy
2:54 PM 89.1 °F 94.1 °F 70.0 °F 53% 30.09 in 10.0 mi SSW 3.5 mph - N/A   Mostly Cloudy
3:54 PM 87.1 °F 92.8 °F 71.1 °F 59% 30.07 in 10.0 mi ESE 9.2 mph - 0.00 in Rain Light Rain
4:04 PM 82.4 °F 87.2 °F 71.6 °F 70% 30.11 in 9.0 mi SSE 8.1 mph - N/A Thunderstorm Thunderstorm
4:42 PM 80.6 °F 83.9 °F 69.8 °F 70% 30.10 in 10.0 mi SW 8.1 mph - N/A   Mostly Cloudy
4:54 PM 82.0 °F 85.9 °F 70.0 °F 67% 30.07 in 10.0 mi WSW 9.2 mph - N/A   Mostly Cloudy
5:54 PM 87.1 °F 94.5 °F 73.0 °F 63% 30.04 in 10.0 mi West 8.1 mph - N/A   Scattered Clouds
6:54 PM 88.0 °F 94.7 °F 72.0 °F 59% 30.03 in 10.0 mi West 3.5 mph - N/A Thunderstorm Thunderstorm
7:25 PM 86.0 °F 93.4 °F 73.4 °F 66% 30.08 in 9.0 mi SW 4.6 mph - N/A Thunderstorm Thunderstorm
7:50 PM 84.0 °F 89.6 °F 72.0 °F 67% 30.06 in 10.0 mi SW 4.6 mph - N/A Thunderstorm Thunderstorm
8:27 PM 82.4 °F 89.5 °F 75.2 °F 79% 30.10 in 7.0 mi SSW 9.2 mph - N/A   Mostly Cloudy
8:54 PM 82.0 °F 87.9 °F 73.9 °F 76% 30.06 in 9.0 mi South 8.1 mph - N/A   Mostly Cloudy
9:54 PM 79.0 °F - 73.0 °F 82% 30.07 in 8.0 mi SSW 6.9 mph - N/A   Clear
10:54 PM 78.1 °F - 73.0 °F 84% 30.09 in 8.0 mi SW 8.1 mph - N/A   Partly Cloudy
11:54 PM 77.0 °F - 73.0 °F 88% 30.09 in 8.0 mi SW 4.6 mph - N/A   Partly Cloudy